| time (UTC) | temp F | wind direction | speed MPH | gust MPH | rain 1hr in | rain 24hr in | rain mn in | humidity % | barometer mb |
| 20260507191101 | 77 | 314 | 2.0 | 7.0 | 0.00 | 0.00 | 0.00 | 71 | 1010.8 |
| 20260507190828 | 76 | 49 | 2.0 | 7.0 | 0.00 | 0.00 | 0.00 | 72 | 1011.0 |
| 20260507190055 | 76 | 311 | 2.0 | 6.0 | 0.00 | 0.00 | 0.00 | 72 | 1011.0 |
| 20260507185554 | 76 | 282 | 1.0 | 6.0 | 0.00 | 0.00 | 0.00 | 72 | 1011.1 |
| 20260507185054 | 76 | 349 | 1.0 | 6.0 | 0.00 | 0.00 | 0.00 | 72 | 1011.1 |
| 20260507184555 | 75 | 41 | 2.0 | 7.0 | 0.00 | 0.00 | 0.00 | 73 | 1011.1 |
| 20260507184054 | 75 | 339 | 2.0 | 7.0 | 0.00 | 0.00 | 0.00 | 72 | 1011.1 |
| 20260507183549 | 75 | 6 | 3.0 | 10.0 | 0.00 | 0.00 | 0.00 | 73 | 1011.2 |
| 20260507183321 | 74 | 71 | 3.0 | 10.0 | 0.00 | 0.00 | 0.00 | 74 | 1011.2 |
| 20260507182550 | 75 | 13 | 2.0 | 9.0 | 0.00 | 0.00 | 0.00 | 73 | 1011.3 |
| 20260507182320 | 74 | 78 | 1.0 | 10.0 | 0.00 | 0.00 | 0.00 | 75 | 1011.3 |
| 20260507181548 | 73 | 61 | 2.0 | 10.0 | 0.00 | 0.00 | 0.00 | 76 | 1011.4 |
| 20260507181049 | 72 | 275 | 2.0 | 8.0 | 0.00 | 0.00 | 0.00 | 76 | 1011.3 |
| 20260507180550 | 72 | 30 | 2.0 | 8.0 | 0.00 | 0.00 | 0.00 | 75 | 1011.5 |
| 20260507180045 | 72 | 68 | 2.0 | 7.0 | 0.00 | 0.00 | 0.00 | 76 | 1011.6 |
| 20260507175545 | 71 | 345 | 2.0 | 7.0 | 0.00 | 0.00 | 0.00 | 76 | 1011.5 |
| 20260507175045 | 72 | 317 | 2.0 | 10.0 | 0.00 | 0.00 | 0.00 | 76 | 1011.6 |
| 20260507174545 | 72 | 302 | 2.0 | 10.0 | 0.00 | 0.00 | 0.00 | 77 | 1011.6 |
| 20260507174046 | 71 | 327 | 2.0 | 7.0 | 0.00 | 0.00 | 0.00 | 78 | 1011.7 |
| 20260507173546 | 71 | 16 | 2.0 | 7.0 | 0.00 | 0.00 | 0.00 | 78 | 1011.9 |
| 20260507173046 | 70 | 314 | 1.0 | 6.0 | 0.00 | 0.00 | 0.00 | 79 | 1011.9 |
| 20260507172542 | 70 | 259 | 1.0 | 3.0 | 0.00 | 0.00 | 0.00 | 80 | 1012.0 |
| 20260507172041 | 69 | 341 | 1.0 | 4.0 | 0.00 | 0.00 | 0.00 | 80 | 1012.1 |
| 20260507171540 | 69 | 50 | 1.0 | 5.0 | 0.00 | 0.00 | 0.00 | 81 | 1012.2 |
| 20260507171037 | 68 | 51 | 1.0 | 6.0 | 0.00 | 0.00 | 0.00 | 81 | 1012.3 |
| 20260507170538 | 68 | 332 | 1.0 | 6.0 | 0.00 | 0.00 | 0.00 | 80 | 1012.3 |
| 20260507170038 | 68 | 11 | 1.0 | 5.0 | 0.00 | 0.00 | 0.00 | 80 | 1012.1 |
| 20260507165536 | 68 | 293 | 1.0 | 5.0 | 0.00 | 0.00 | 0.00 | 81 | 1012.2 |
| 20260507165035 | 68 | 18 | 1.0 | 7.0 | 0.00 | 0.00 | 0.00 | 81 | 1012.2 |
| 20260507164805 | 67 | 349 | 1.0 | 7.0 | 0.00 | 0.00 | 0.00 | 82 | 1012.1 |
| 20260507164035 | 67 | 328 | 1.0 | 7.0 | 0.00 | 0.00 | 0.00 | 82 | 1012.2 |
| 20260507163536 | 67 | 319 | 1.0 | 7.0 | 0.00 | 0.00 | 0.00 | 82 | 1012.1 |
| 20260507163040 | 68 | 354 | 1.0 | 6.0 | 0.00 | 0.00 | 0.00 | 82 | 1012.0 |
| 20260507162534 | 67 | 86 | 1.0 | 6.0 | 0.00 | 0.00 | 0.00 | 83 | 1011.9 |
| 20260507162032 | 67 | 62 | 2.0 | 7.0 | 0.00 | 0.00 | 0.00 | 83 | 1011.8 |
| 20260507161531 | 67 | 233 | 2.0 | 7.0 | 0.00 | 0.00 | 0.00 | 83 | 1011.8 |
| 20260507161031 | 67 | 29 | 1.0 | 9.0 | 0.00 | 0.00 | 0.00 | 83 | 1011.7 |
| 20260507160531 | 67 | 75 | 1.0 | 9.0 | 0.00 | 0.00 | 0.00 | 83 | 1011.8 |
| 20260507160031 | 67 | 56 | 2.0 | 10.0 | 0.00 | 0.00 | 0.00 | 83 | 1011.9 |
| 20260507155532 | 67 | 47 | 2.0 | 10.0 | 0.00 | 0.00 | 0.00 | 83 | 1011.9 |
| 20260507155032 | 67 | 56 | 2.0 | 8.0 | 0.00 | 0.00 | 0.00 | 84 | 1011.9 |
| 20260507154526 | 67 | 306 | 2.0 | 8.0 | 0.00 | 0.00 | 0.00 | 84 | 1011.7 |
| 20260507154024 | 66 | 37 | 2.0 | 8.0 | 0.00 | 0.00 | 0.00 | 84 | 1011.7 |
| 20260507153522 | 66 | 349 | 2.0 | 8.0 | 0.00 | 0.00 | 0.00 | 84 | 1011.6 |
| 20260507153021 | 66 | 52 | 1.0 | 8.0 | 0.00 | 0.00 | 0.00 | 85 | 1011.7 |
| 20260507152519 | 66 | 356 | 1.0 | 6.0 | 0.00 | 0.00 | 0.00 | 85 | 1011.8 |
| 20260507152014 | 66 | 12 | 1.0 | 6.0 | 0.00 | 0.00 | 0.00 | 86 | 1011.8 |
| 20260507151745 | 66 | 45 | 1.0 | 8.0 | 0.00 | 0.00 | 0.00 | 86 | 1012.0 |
| 20260507151634 | 65 | 304 | 2.0 | 8.0 | 0.00 | 0.00 | 0.00 | 86 | 1012.0 |
| 20260507150514 | 65 | 308 | 2.0 | 9.0 | 0.00 | 0.00 | 0.00 | 86 | 1012.0 |
| 20260507150015 | 65 | 314 | 2.0 | 9.0 | 0.00 | 0.00 | 0.00 | 86 | 1012.0 |
| 20260507145513 | 65 | 21 | 2.0 | 9.0 | 0.00 | 0.00 | 0.00 | 86 | 1012.0 |
| 20260507145010 | 65 | 343 | 2.0 | 9.0 | 0.00 | 0.00 | 0.00 | 86 | 1012.1 |
| 20260507144510 | 66 | 339 | 2.0 | 8.0 | 0.00 | 0.00 | 0.00 | 86 | 1012.0 |
| 20260507144008 | 66 | 76 | 1.0 | 8.0 | 0.00 | 0.00 | 0.00 | 86 | 1011.9 |
| 20260507143508 | 66 | 243 | 2.0 | 7.0 | 0.00 | 0.00 | 0.00 | 86 | 1011.9 |
| 20260507143008 | 66 | 180 | 2.0 | 8.0 | 0.00 | 0.00 | 0.00 | 86 | 1011.9 |
| 20260507142508 | 66 | 342 | 2.0 | 8.0 | 0.00 | 0.00 | 0.00 | 86 | 1011.6 |